This is the latest recevied weather packets stored in our database for station/object N8AMF. If no packets are shown the sender has not sent any weather packets the latest 10 day(s).
| Time | Temp. | Humidity | Pressure | Rain* | Wind** | Luminosity | Snow |
|---|---|---|---|---|---|---|---|
| 1777559896 | 8.33° C | 77% | 1013.9 hPa | 0 mm | - | 241 W/m² | - |
| 1777559591 | 8.89° C | 75% | 1013.9 hPa | 0 mm | - | 276 W/m² | - |
| 1777559289 | 8.89° C | 76% | 1013.8 hPa | 0 mm | - | 465 W/m² | - |
| 1777558985 | 8.33° C | 78% | 1013.7 hPa | 0 mm | - | 484 W/m² | - |
| 1777558680 | 8.33° C | 78% | 1013.8 hPa | 0 mm | - | 303 W/m² | - |
| 1777558376 | 8.33° C | 77% | 1013.7 hPa | 0 mm | - | 264 W/m² | - |
| 1777558073 | 7.78° C | 77% | 1013.3 hPa | 0 mm | - | 360 W/m² | - |
| 1777557769 | 7.78° C | 78% | 1013.6 hPa | 0 mm | - | 328 W/m² | - |
| 1777557466 | 8.33° C | 79% | 1013.7 hPa | 0 mm | - | 277 W/m² | - |
| 1777557162 | 8.33° C | 78% | 1013.3 hPa | 0 mm | - | 279 W/m² | - |
| 1777556858 | 8.33° C | 78% | 1013.5 hPa | 0 mm | - | 307 W/m² | - |
| 1777556555 | 8.33° C | 80% | 1013.5 hPa | 0 mm | - | 340 W/m² | - |
| 1777556254 | 7.78° C | 80% | 1013.3 hPa | 0 mm | - | 315 W/m² | - |
| 1777555950 | 7.78° C | 81% | 1013.2 hPa | 0 mm | - | 240 W/m² | - |
| 1777555646 | 7.78° C | 80% | 1013.3 hPa | 0 mm | - | 106 W/m² | - |
| 1777555342 | 7.22° C | 79% | 1013.2 hPa | 0 mm | - | 229 W/m² | - |
| 1777555039 | 7.78° C | 79% | 1013.1 hPa | 0 mm | - | 246 W/m² | - |
| 1777554736 | 7.78° C | 80% | 1013.1 hPa | 0 mm | - | 248 W/m² | - |
| 1777554433 | 7.78° C | 81% | 1012.9 hPa | 0 mm | - | 237 W/m² | - |
| 1777554130 | 7.22° C | 81% | 1013 hPa | 0 mm | - | 231 W/m² | - |
| 1777553827 | 7.22° C | 81% | 1013.1 hPa | 0 mm | - | 202 W/m² | - |
| 1777553523 | 6.67° C | 81% | 1012.9 hPa | 0 mm | - | 149 W/m² | - |
| 1777553219 | 6.67° C | 82% | 1013 hPa | 0 mm | - | 123 W/m² | - |
| 1777552915 | 6.67° C | 82% | 1012.8 hPa | 0 mm | - | 95 W/m² | - |
| 1777552615 | 6.67° C | 82% | 1012.9 hPa | 0 mm | - | 113 W/m² | - |
* Rain latest hour (hover to see other rain measurements)
** Current wind speed in m/s (hover to see current wind gust speed)